Welcome to the New NWS' Forecast!
Most changes are behind the scenes, but click here for differences you might notice.

Regional Weather Roundup (RWR)

Issued by Gray - Portland, ME (GYX)

                            
000
ASUS41 KGYX 112205
RWRGYX
WEATHER ROUNDUP FOR MAINE AND NEW HAMPSHIRE
NATIONAL WEATHER SERVICE GRAY ME
500 PM EST SUN NOV 11 2018

MEZ002-005-006-010-012-015-018-020-021-024-026-027-029-112300-
MAINE
  
CITY           SKY/WX    TMP DP  RH WIND       PRES   REMARKS
PORTLAND       FAIR      36  10  34 W10       30.22R                  
SANFORD        FAIR      35   9  33 W6        30.24R                  
BAR HARBOR     FAIR      32  16  51 W10G18    30.16R                  
WISCASSET      FAIR      32  16  51 CALM      30.22R                  
ROCKLAND       FAIR      31  17  56 W8        30.19R                  
FRYEBURG       FAIR      33   8  35 W16G26    30.22R                  
LEWISTONAUBURN FAIR      32  13  45 NW3       30.21R                  
AUGUSTA        FAIR      31  12  45 W8        30.20R                  
WATERVILLE     FAIR      30  16  56 MISG      30.17R                  
BANGOR         FAIR      31  13  47 VRB6      30.16R                  
GREENVILLE       N/A     22  10  60 W13G26    30.06R WCI  10          
MILLINOCKET    MOCLDY    28  12  51 W10G18    30.12R WCI  19          
HOULTON        FAIR      28  14  55 W16G26    30.02R WCI  16          
PRESQUE ISLE   MOCLDY    26  16  65 W17G31    30.00R WCI  13          
FRENCHVILLE    MOCLDY    27  13  55 W16G32    29.93R WCI  15          
CARIBOU        CLOUDY    27  17  66 W14G23    29.97R WCI  16          
$$

NHZ002-005-008-009-011-012-014-112300-
NEW HAMPSHIRE
  
CITY           SKY/WX    TMP DP  RH WIND       PRES   REMARKS
PORTSMOUTH     PTCLDY    37   6  27 W10       30.23R                  
ROCHESTER      FAIR      36   9  32 NW8       30.23R                  
NASHUA         FAIR      39  10  30 W7        30.26R                  
MANCHESTER     FAIR      39   6  25 W8        30.24R                  
CONCORD        FAIR      34   8  33 W7        30.25R                  
LACONIA        FAIR      33   8  35 W3        30.24R                  
PLYMOUTH       FAIR      33   9  36 CALM      30.23R                  
BERLIN         FAIR      28  12  51 CALM      30.18R                  
WHITEFIELD     FAIR      28  12  51 W6        30.21R                  
JAFFREY        FAIR      35  13  40 W5        30.23R                  
KEENE          FAIR      37  13  37 VRB6      30.27R                  
LEBANON        FAIR      35   9  33 W6        30.25R                  
MT WASHINGTON  PTCLDY     3   0  85 W62         N/A  WCI -29          
$$

VTZ005-007-008-112300-
VERMONT
  
CITY           SKY/WX    TMP DP  RH WIND       PRES   REMARKS
ST JOHNSBURY     N/A     28  16  60 MISG      30.22S                  
MONTPELIER     FAIR      29  11  47 W6        30.25S                  
BURLINGTON     FAIR      35   4  27 W8        30.27R                  
$$

MAZ007-012-024-CTZ003-RIZ002-NYZ038-NYZ072-112300-
SOUTHERN NEW ENGLAND AND NY
  
CITY           SKY/WX    TMP DP  RH WIND       PRES   REMARKS
BOSTON         FAIR      43  14  31 W9G18     30.26R                  
WORCESTER      FAIR      34  17  50 W7        30.25R                  
NANTUCKET      FAIR      39  24  55 W7        30.28R                  
PROVIDENCE     FAIR      41  20  43 W12       30.29R                  
HARTFORD       FAIR      38  20  48 NW6G17    30.31R                  
ALBANY         FAIR      36  20  52 W9        30.32S                  
NEW YORK CITY  FAIR      46  21  37 NW10      30.32R                  
$$

ANZ081-ANZ082-ANZ150-NHZ014-MEZ023>029-112300-
COASTAL MARINE OBSERVATIONS
  
STATION/POSITION TIME  TEMP    WIND        PRES    WAVE
                       AIR SEA DIR/SP/G            HT/PER
                 (UTC) (F)     (DEG/KT/KT) (MB)    (FT/S)
MOUNT DESERT ROC 2200   37     270/ 22/ 25 1021.3R
MATINICUS ROCK   2100   38     290/ 21/ 23 1020.8R
ISLE OF SHOALS   2100   41     280/ 21/ 23 1023.0R
JEFFREYS LEDGE   2106      51                N/A     4/ 4
CASHES LEDGE BUO 2150   40 51              1022.5R   6/ 6
$$

.............KEY..............
   WCI - WIND CHILL
   TC  - TEMPERATURE IN CELSIUS
   VSB - VISIBILITY IN MILES
   HX  - HEAT INDEX
   FAIR- INDICATES FEW OR NO CLOUDS BELOW 12,000 FT, WITH NO 
         SIGNIFICANT WEATHER AND/OR OBSTRUCTIONS TO VISIBILITY.